2024 NS1
ephemeris date magn radius delta ra dec elong phase
Today21 Oct 202528.41.689 AU2.574 AU12h32m+02°27'21.7°12.6°
2024 NS1 - 2025-10-21
astro.vanbuitenen.nl


 
-1 year
-1 month
-1 day
Now
+1 day
+1 month
+1 year

The interactive orbit chart above shows the body's path through the solar system and its position at the given date. Green and blue lines are shown perpendicular to the ecliptic plane: Green if the path is above the ecliptic plane, blue if it is below. (Left-click and drag to rotate the view; Right-click and drag to move the view; Use scroll wheel to zoom in our out.)

The orbital elements of 2024 NS1 are:

            e (Eccentricity)                : 0.2926863
            a (Semimajor axis)              : 1.4506194
            i (Inclination)                 : 11.68080
            Ω (Longitude of ascending node) : 128.63708
            ω (Argument of perihelion)      : 183.33829
            M (Mean anomaly)                : 154.39216
            Epoch                           : 2025 May 05

            L (Longitude of perihelion)     : 131.90639
            B (Latitude of perihelion)      : -0.67550
            P (Orbital period in years)     : 1.75            
        

The light curve chart below shows the estimated development of the minor planet's magnitude.


The all-sky chart below shows the path of the minor planet over the same period as the light curve. The current position is marked yellow.





The following chart shows the path of the minor planet in the next few days. The field of view is optimized for (~10x50) binoculars and finderscopes.




Ephemerides:
Date       Time       RA (2000)    DEC (2000)    delta   radius  elong  phase   PA    magn
2025-10-21 00:00 UT   12 32 36.1   +02 27 59     2.574    1.689   21.7   12.6   307   28.4 
2025-10-21 04:00 UT   12 32 59.7   +02 25 54     2.573    1.688   21.7   12.6   307   28.4 
2025-10-22 00:00 UT   12 34 58.1   +02 15 28     2.567    1.686   22.0   12.8   307   28.4 
2025-10-23 00:00 UT   12 37 20.4   +02 02 56     2.560    1.683   22.4   13.0   307   28.4 
2025-10-24 00:00 UT   12 39 43.1   +01 50 23     2.553    1.680   22.8   13.2   307   28.4 
2025-10-25 00:00 UT   12 42 06.1   +01 37 51     2.546    1.677   23.1   13.5   307   28.4 
2025-10-26 00:00 UT   12 44 29.6   +01 25 18     2.538    1.674   23.5   13.7   306   28.4 
2025-10-27 00:00 UT   12 46 53.4   +01 12 44     2.531    1.671   23.8   13.9   306   28.4 
2025-10-28 00:00 UT   12 49 17.6   +01 00 11     2.524    1.668   24.2   14.1   306   28.4 
2025-10-29 00:00 UT   12 51 42.1   +00 47 37     2.516    1.664   24.5   14.4   306   28.4 
2025-10-30 00:00 UT   12 54 07.1   +00 35 03     2.509    1.661   24.9   14.6   306   28.4 
2025-10-31 00:00 UT   12 56 32.5   +00 22 29     2.501    1.658   25.3   14.8   306   28.4 
2025-11-01 00:00 UT   12 58 58.4   +00 09 56     2.493    1.655   25.6   15.0   305   28.4 
2025-11-02 00:00 UT   13 01 24.6   +00 02 38     2.486    1.652   26.0   15.3   305   28.4 
2025-11-03 00:00 UT   13 03 51.3   +00 15 11     2.478    1.648   26.3   15.5   305   28.4 


    Terminology:
            
    delta:  distance between minor planet and earth in AU
    radius: distance between minor planet and sun in AU
    magn:   magnitude (brightness) estimate    
    ra:     right ascension in hours (24h = 360deg)
    dec:    declination in degrees
    elong:  elongation in degrees (angle sun-earth-minor planet)    
    phase:  phase angle in degrees (angle sun-minor planet-earth)        
    AU:     Astronomical Unit (mean distance between earth and sun: 149597870.7 km
    

Orbital elements provided by the MPC (Minor Planet Center).
Calculations by a modified version of AAPlus, a C# implementation of the AA+ project by PJ Naughter from the algorithms presented in the book "Astronomical Algorithms" by Jean Meeus.
NGC2000 dso catalog and star labels from VizieR as provided by the Strasbourg astronomical Data Center.
Tycho2 catalog from the ESO archive.